Regional Weather Roundup
Issued by NWS

Home | Current Version | Previous Version | Text Only | Print | Product List | Glossary On
Versions: 1 2 3 4 5 6 7 8 9 10 11 12 13 14 15 16 17 18 19 20 21 22 23 24 25 26 27 28 29 30 31 32 33 34 35 36 37 38 39 40 41 42 43 44 45 46 47 48 49 50
000
ASUS44 KEWX 062011
RWRTX
SOUTH TEXAS REGIONAL WEATHER ROUNDUP
NATIONAL WEATHER SERVICE AUSTIN/SAN ANTONIO TX
300 PM CDT WED MAY 06 2015

NOTE: "FAIR" INDICATED FEW OR NO CLOUDS BELOW 12,000 FEET WITH NO
SIGNIFICANT WEATHER AND/OR OBSTRUCTIONS TO VISIBILITY.

* - THESE STATIONS ARE NOT NWS OR FAA STATIONS...AND ARE NOT SUBJECT
    TO NWS AND FAA QUALITY CONTROL.

TXZ171-172-183>190-062100-
TEXAS HILL COUNTRY AND EDWARDS PLATEAU

CITY           SKY/WX    TMP DP  RH WIND       PRES   REMARKS
JUNCTION       MOSUNNY   82  65  56 S17G25    29.89F
*LLANO         MOSUNNY   84  66  54 S13G22    29.92F
BURNET         MOSUNNY   84  66  54 S13G20    29.92F
*HORSESHOE BAY MOSUNNY   86  68  54 S10G21    29.91F
*KERRVILLE     CLOUDY    78  69  73 SE13G21   29.93F
*FREDERICKSBRG PTSUNNY   79  66  65 S14       29.93S
*ROCKSPRINGS   PTSUNNY   72  70  94 SE13      29.95F FOG
*BOERNE STAGE  CLOUDY    77  64  65 S8        29.94S
*CASTROVILLE   MOSUNNY   82  65  56 SE13G22   29.91F
HONDO          CLOUDY    81  68  64 S16       29.91F
*UVALDE        CLOUDY    80  71  73 E15       29.89F
DEL RIO        PTSUNNY   84  69  60 SE13      29.83F
LAUGHLIN AFB   PTSUNNY   83  72  71 S17       29.84F
CARRIZO SPRGS  CLOUDY    79  70  73 SE12      29.84F
$$

TXZ173-191>194-202-209-217>225-228-062100-
CENTRAL AND SOUTH CENTRAL TEXAS

CITY           SKY/WX    TMP DP  RH WIND       PRES   REMARKS
GEORGETOWN     PTSUNNY   82  68  61 SE9       29.90F
AUSTIN/BERGSTM PTSUNNY   86  69  56 SE14      29.89F HX  90
AUSTIN/MABRY   PTSUNNY   83  69  62 S8G18     29.91F
*AUSTIN/EXEC   MOSUNNY   84  68  58 S13       29.91F
*LAGO VISTA    PTSUNNY   84  67  55 S12G17    29.93F
SAN MARCOS     PTSUNNY   84  70  61 S16       29.91F
NEW BRAUNFELS  MOSUNNY   87  69  54 S14       29.88F HX  91
RANDOLPH AFB   CLOUDY    84  70  61 S15       29.90F
PT SAN ANTONIO PTSUNNY   82  70  65 S15       29.88F
SAN ANTONIO    PTSUNNY   84  69  60 SE13      29.90F
STINSON FIELD  CLOUDY    84  69  60 S10       29.88F
*PLEASANTON    PTSUNNY   83  68  59 E9G17     29.89F
*LA GRANGE     MOSUNNY   85  71  62 S12       29.90S HX  90
*GIDDINGS      PTSUNNY   83  68  60 S10       29.95S
*GONZALES      PTSUNNY   88  72  58 S13G20    29.89F HX  94
$$

TXZ163>164-176>182-195>201-210>213-226-227-235-062100-
SOUTHEAST TEXAS

CITY           SKY/WX    TMP DP  RH WIND       PRES   REMARKS
COLLEGE STN    PTSUNNY   83  71  67 SE10      29.92F
*BRYAN         CLOUDY    83  73  71 SE15      29.94F
*CALDWELL      MOSUNNY   82  72  69 SE8       29.94F
*CROCKETT      NOT AVBL
*BRENHAM       SUNNY     85  71  60 SE10      29.92F HX  90
HUNTSVILLE     CLOUDY    78  70  76 VRB3      29.95F
CONROE         MOSUNNY   80  70  71 SE12G20   29.96F
HOUSTON BUSH   PTSUNNY   83  73  72 SE20      29.94F
HOUSTON HOBBY  MOSUNNY   85  70  60 S15G28    29.94F
*HOUSTON SW AP CLOUDY    84  76  78 SE10G18   29.95F HX  93
PEARLAND       PTSUNNY   84  70  62 SE17G23   29.96F
HOUSTON HOOKS  CLOUDY    79  70  74 SE8       29.94F
ELLINGTON FLD  PTSUNNY   81  72  74 E15       29.96F
SUGAR LAND     MOSUNNY   85  71  63 SE17G24   29.93F HX  90
*HOUSTON EXEC  SUNNY     86  68  54 S17G25    29.94S
*CLEVELAND MUN CLOUDY    81  71  73 SE5       29.97F
*WHARTON       MOSUNNY   85  69  57 SE17G23   29.94S
*COLUMBUS      PTSUNNY   84  70  62 S13G20    29.92S
$$

TXZ214>216-236>238-062100-
THE UPPER TEXAS COAST

CITY           SKY/WX    TMP DP  RH WIND       PRES   REMARKS
*ORANGE        PTSUNNY   81  65  58 SE9G20    30.01F
PORT ARTHUR    PTSUNNY   82  70  66 E18       29.98F
GALVESTON      MOSUNNY   82  73  74 SE17      29.97F
ANGLETON       LGT RAIN  78  72  81 SE12      29.96S
*BAY CITY      CLOUDY    82  73  75 S14       29.95S
PALACIOS       CLOUDY    81  72  74 SE16      29.94F
$$

TXZ229>234-239>247-062100-
TEXAS COASTAL BEND AND RIO GRANDE PLAINS

CITY           SKY/WX    TMP DP  RH WIND       PRES   REMARKS
VICTORIA       MOSUNNY   85  71  63 SE18G25   29.92F HX  90
*BEEVILLE      PTSUNNY   85  69  57 SE18      29.89F
ROCKPORT       PTSUNNY   84  72  67 SE15G24   29.91F
*PORT ARANSAS  CLOUDY    81  74  80 SE12G17   29.91F
*PORT LAVACA   PTSUNNY   82  71  70 SE16      29.92F
*INGLESIDE     PTSUNNY   84  73  68 SE21G28   29.90F HX  90
CORPUS CHRISTI PTSUNNY   84  71  65 SE20      29.89F
CORPUS NAS     PTSUNNY   81  74  79 SE18      29.91F
*ROBSTOWN      PTSUNNY   86  70  58 SE17G23   29.89F HX  90
ALICE            N/A     86  70  58 SE18      29.87F HX  90
KINGSVILLE NAS PTSUNNY   85  71  63 SE20      29.87F HX  90
COTULLA        PTSUNNY   83  68  60 SE14      29.87F
*FAITH RANCH   PTSUNNY   81  72  74 SE13G21   29.85F
LAREDO         CLOUDY    79  74  84 SE14      29.87F
$$

TXZ248>255-062100-
DEEP SOUTH TEXAS

CITY           SKY/WX    TMP DP  RH WIND       PRES   REMARKS
BROWNSVILLE    CLOUDY    85  72  65 SE18G26   29.87S HX  91
PORT ISABEL    PTSUNNY   85  71  63 SE23      29.86F HX  90
*SOUTH PADRE   MOSUNNY   82  75  78 SW10      29.88F
HARLINGEN      CLOUDY    84  71  65 SE18      29.85F
*HEBBRONVILLE  PTSUNNY   76  72  89 SE6       29.88F
MCALLEN        PTSUNNY   85  73  67 SE15G23   29.85F HX  91
*WESLACO       CLOUDY    84  70  63 SE15G21   29.85F
FALFURRIAS     CLOUDY    82  71  71 SE12      29.86F
EDINBURG       CLOUDY    84  70  63 SE14      29.85F
*ZAPATA        CLOUDY    83  71  67 SE15G21   29.84F
$$

TXZ213>215-236>238-242>244-246-247-251-254-255-062100-
CMAN STATIONS

STATION/POSITION TIME  TEMP    WIND        PRES    WAVE
                       AIR SEA DIR/SP/G            HT/PER
                 (UTC) (F)     (DEG/KT/KT) (MB)    (FT/S)
$$

GMZ080-GMZ150>470-062100-
OFFSHORE BUOY REPORTS

STATION/POSITION TIME  TEMP    WIND        PRES    WAVE
                       AIR SEA DIR/SP/G            HT/PER
                 (UTC) (F)     (DEG/KT/KT) (MB)    (FT/S)
$$


USA.gov is the U.S. government's official web portal to all federal, state and local government web resources and services.